LKKB Weather Reports


time (UTC)temp
C
wind
direction
speed
KPH
gust
KPH
rain 1hr
cm
rain 24hr
cm
rain mn
cm
humidity
%
barometer
mb
20260505123103 22 30 8.0 0.0 0.00 0.00 0.00 43 1007.0
20260505121852 22 10 11.3 0.0 0.00 0.00 0.00 40
20260505120103 22 70 8.0 0.0 0.00 0.00 0.00 43 1007.0
20260505113103 22 130 4.8 0.0 0.00 0.00 0.00 43 1007.0
20260505111851 22 340 11.3 0.0 0.00 0.00 0.00 43
20260505110208 22 10 9.7 0.0 0.00 0.00 0.00 46 1007.0
20260505101852 21 350 8.0 0.0 0.00 0.00 0.00 43
20260505093102 20 20 8.0 0.0 0.00 0.00 0.00 52 1008.0
20260505091851 20 10 11.3 0.0 0.00 0.00 0.00 56
20260505083102 18 350 9.7 0.0 0.00 0.00 0.00 59 1008.0
20260505081853 17 40 8.0 0.0 0.00 0.00 0.00 63
20260505080103 17 20 8.0 0.0 0.00 0.00 0.00 63 1008.0
20260505073103 17 30 9.7 0.0 0.00 0.00 0.00 67 1008.0
20260505071851 17 30 8.0 0.0 0.00 0.00 0.00 67
20260505070211 17 10 8.0 0.0 0.00 0.00 0.00 67 1009.0
20260505063102 16 360 4.8 0.0 0.00 0.00 0.00 77 1008.0
20260505061854 16 10 8.0 0.0 0.00 0.00 0.00 72
20260505053103 17 0 3.2 0.0 0.00 0.00 0.00 67 1009.0
20260505051852 15 270 3.2 0.0 0.00 0.00 0.00 77
20260505050210 16 0 0.0 0.0 0.00 0.00 0.00 72 1009.0
20260505033103 13 270 8.0 0.0 0.00 0.00 0.00 87 1009.0
20260505031852 13 200 8.0 0.0 0.00 0.00 0.00 87
20260505030103 15 200 4.8 0.0 0.00 0.00 0.00 77 1009.0
20260505023102 13 0 3.2 0.0 0.00 0.00 0.00 87 1009.0
20260505021851 15 310 3.2 0.0 0.00 0.00 0.00 72
20260505020103 15 0 3.2 0.0 0.00 0.00 0.00 77 1009.0
20260505013102 15 320 4.8 0.0 0.00 0.00 0.00 77 1009.0
20260505011854 16 20 3.2 0.0 0.00 0.00 0.00 67
20260505010103 16 0 3.2 0.0 0.00 0.00 0.00 72 1009.0
20260505003103 16 0 4.8 0.0 0.00 0.00 0.00 72 1010.0
20260505002011 16 160 9.7 0.0 0.00 0.00 0.00 72 1010.0
20260505001852 17 70 25.7 0.0 0.00 0.00 0.00 63
20260504235010 16 90 22.5 0.0 0.00 0.00 0.00 72 1010.0
20260504233103 15 100 22.5 0.0 0.00 0.00 0.00 82 1011.0
20260504231909 17 280 8.0 0.0 0.00 0.00 0.00 63
20260504231503 16 120 14.5 0.0 0.00 0.00 0.00 72 1012.0
20260504230211 16 260 12.9 0.0 0.00 0.00 0.00 72 1012.0
20260504223102 17 210 24.1 0.0 0.00 0.00 0.00 63 1012.0
20260504222103 17 0 3.2 0.0 0.00 0.00 0.00 59 1011.0
20260504221853 17 40 8.0 0.0 0.00 0.00 0.00 55
20260504220209 17 30 8.0 0.0 0.00 0.00 0.00 55 1011.0
20260504213103 17 60 8.0 0.0 0.00 0.00 0.00 52 1011.0
20260504211851 17 40 3.2 0.0 0.00 0.00 0.00 52
20260504203103 17 60 3.2 0.0 0.00 0.00 0.00 52 1011.0
20260504201850 17 60 3.2 0.0 0.00 0.00 0.00 48
20260504193102 18 70 8.0 0.0 0.00 0.00 0.00 48 1011.0
20260504191853 18 60 8.0 0.0 0.00 0.00 0.00 48
20260504190212 20 50 4.8 0.0 0.00 0.00 0.00 45 1011.0
20260504183103 21 70 8.0 0.0 0.00 0.00 0.00 40 1011.0
20260504181854 20 50 3.2 0.0 0.00 0.00 0.00 42
20260504180103 21 50 4.8 0.0 0.00 0.00 0.00 40 1011.0
20260504173103 22 60 3.2 0.0 0.00 0.00 0.00 37 1011.0
20260504171854 21 50 3.2 0.0 0.00 0.00 0.00 43
20260504170103 22 30 4.8 0.0 0.00 0.00 0.00 37 1011.0
20260504160212 22 20 8.0 0.0 0.00 0.00 0.00 35 1012.0
20260504150103 22 90 8.0 0.0 0.00 0.00 0.00 35 1012.0
20260504130211 22 30 9.7 0.0 0.00 0.00 0.00 37 1013.0